GW3114 Weather Reports


time (UTC)temp
C
wind
direction
speed
KPH
gust
KPH
rain 1hr
cm
rain 24hr
cm
rain mn
cm
humidity
%
barometer
mb
20260510060954 9 236 1.6 3.2 0.00 0.00 0.00 98 1010.5
20260510055953 9 212 0.0 0.0 0.00 0.00 0.00 98 1010.5
20260510054954 9 209 0.0 0.0 0.00 0.00 0.00 97 1010.5
20260510053950 10 221 0.0 0.0 0.00 0.00 0.00 96 1010.4
20260510052947 10 221 0.0 0.0 0.00 0.00 0.00 96 1010.5
20260510051946 10 238 1.6 1.6 0.00 0.00 0.00 96 1010.5
20260510050944 10 218 0.0 1.6 0.00 0.00 0.00 96 1010.5
20260510045945 10 226 0.0 0.0 0.00 0.00 0.00 96 1010.5
20260510044944 10 215 0.0 0.0 0.00 0.00 0.00 96 1010.6
20260510043944 10 216 0.0 0.0 0.00 0.00 0.00 96 1010.3
20260510042944 10 216 0.0 0.0 0.00 0.00 0.00 96 1010.6
20260510041941 10 215 0.0 0.0 0.00 0.00 0.00 96 1010.5
20260510040936 11 219 0.0 0.0 0.00 0.00 0.00 95 1010.2
20260510035933 11 218 0.0 0.0 0.00 0.00 0.00 95 1010.2
20260510034930 11 219 0.0 0.0 0.00 0.00 0.00 94 1010.5
20260510033925 11 233 1.6 1.6 0.00 0.00 0.00 94 1010.1
20260510032924 11 227 1.6 3.2 0.00 0.00 0.00 94 1010.2
20260510031922 11 225 1.6 1.6 0.00 0.00 0.00 93 1010.3
20260510030919 12 219 0.0 0.0 0.00 0.00 0.00 93 1010.3
20260510025913 12 211 0.0 0.0 0.00 0.00 0.00 93 1010.2
20260510024913 12 219 1.6 1.6 0.00 0.00 0.00 92 1010.2
20260510023910 12 222 0.0 0.0 0.00 0.00 0.00 92 1010.3
20260510022910 12 219 0.0 0.0 0.00 0.00 0.00 92 1010.1
20260510021908 12 229 0.0 0.0 0.00 0.00 0.00 91 1010.1
20260510020909 13 228 0.0 0.0 0.00 0.00 0.00 90 1009.9
20260510015905 13 217 0.0 0.0 0.00 0.00 0.00 90 1009.8
20260510014902 13 225 1.6 1.6 0.00 0.00 0.00 89 1009.7
20260510013902 14 219 0.0 0.0 0.00 0.00 0.00 87 1009.6
20260510012858 14 222 1.6 1.6 0.00 0.00 0.00 87 1009.2
20260510011854 15 215 0.0 0.0 0.00 0.00 0.00 85 1009.3
20260510010852 15 216 0.0 0.0 0.00 0.00 0.00 83 1009.1
20260510005851 15 225 0.0 1.6 0.00 0.00 0.00 81 1008.9
20260510004851 16 221 0.0 0.0 0.00 0.00 0.00 79 1008.7
20260510003847 16 215 0.0 0.0 0.00 0.00 0.00 78 1008.5
20260510002842 17 220 0.0 0.0 0.00 0.00 0.00 77 1008.6
20260510001842 18 215 0.0 0.0 0.00 0.00 0.00 72 1008.6
20260510000842 18 213 0.0 0.0 0.00 0.00 0.00 68 1008.7
20260509235841 20 215 0.0 0.0 0.00 0.00 0.00 64 1008.5
20260509234840 22 221 0.0 0.0 0.00 0.00 0.00 60 1008.5
20260509233836 23 221 0.0 0.0 0.00 0.00 0.00 55 1008.3
20260509232834 22 216 0.0 0.0 0.00 0.00 0.00 54 1008.1
20260509231834 24 199 0.0 0.0 0.00 0.00 0.00 48 1008.1
20260509230829 23 218 0.0 0.0 0.00 0.00 0.00 49 1008.1
20260509225826 25 212 0.0 0.0 0.00 0.00 0.00 47 1008.2
20260509224826 24 228 1.6 1.6 0.00 0.00 0.00 49 1008.0
20260509223825 23 216 0.0 0.0 0.00 0.00 0.00 53 1008.1
20260509222824 23 215 0.0 1.6 0.00 0.00 0.00 51 1008.1
20260509221821 23 258 1.6 3.2 0.00 0.00 0.00 53 1008.0
20260509220819 24 216 0.0 0.0 0.00 0.00 0.00 50 1008.0
20260509215817 23 271 3.2 3.2 0.00 0.00 0.00 51 1008.1
20260509214816 23 215 0.0 0.0 0.00 0.00 0.00 53 1008.3
20260509213816 24 237 3.2 3.2 0.00 0.00 0.00 51 1008.0
20260509212815 25 243 3.2 3.2 0.00 0.00 0.00 50 1007.9
20260509211814 24 228 0.0 1.6 0.00 0.00 0.00 52 1007.9
20260509210813 24 224 0.0 0.0 0.00 0.00 0.00 52 1007.9
20260509205810 23 263 6.4 9.7 0.00 0.00 0.00 52 1008.0
20260509204808 25 286 4.8 4.8 0.00 0.00 0.00 50 1007.9
20260509203806 24 217 0.0 1.6 0.00 0.00 0.00 50 1008.0
20260509202805 22 196 3.2 3.2 0.00 0.00 0.00 52 1008.1
20260509201800 24 176 3.2 4.8 0.00 0.00 0.00 50 1008.0
20260509200800 23 171 4.8 6.4 0.00 0.00 0.00 50 1007.9
20260509195758 23 216 1.6 3.2 0.00 0.00 0.00 59 1008.0
20260509194753 22 173 1.6 3.2 0.00 0.00 0.00 57 1008.3
20260509193752 21 171 1.6 6.4 0.00 0.00 0.00 58 1008.4
20260509192749 21 204 1.6 3.2 0.00 0.00 0.00 61 1008.6
20260509191745 21 137 3.2 4.8 0.00 0.00 0.00 63 1008.8
20260509190743 21 138 4.8 6.4 0.00 0.00 0.00 59 1008.8
20260509185743 23 181 1.6 1.6 0.00 0.00 0.00 62 1009.0
20260509184743 21 205 4.8 6.4 0.00 0.00 0.00 58 1009.2
20260509183742 22 264 6.4 11.3 0.00 0.00 0.00 57 1009.4
20260509182739 22 209 0.0 1.6 0.00 0.00 0.00 56 1009.5
20260509181740 21 166 1.6 3.2 0.00 0.00 0.00 58 1009.3
20260509180739 20 153 1.6 1.6 0.00 0.00 0.00 60 1009.6
20260509175738 21 225 0.0 1.6 0.00 0.00 0.00 61 1009.6
20260509174737 21 187 1.6 1.6 0.00 0.00 0.00 62 1010.3
20260509173734 21 262 1.6 1.6 0.00 0.00 0.00 59 1010.4
20260509172732 21 228 1.6 1.6 0.00 0.00 0.00 58 1010.5
20260509171730 21 242 0.0 1.6 0.00 0.00 0.00 60 1010.5
20260509170729 22 340 3.2 3.2 0.00 0.00 0.00 54 1010.2
20260509165729 21 277 1.6 3.2 0.00 0.00 0.00 60 1010.6
20260509164727 21 233 3.2 3.2 0.00 0.00 0.00 59 1010.3
20260509163726 20 199 1.6 3.2 0.00 0.00 0.00 61 1010.5
20260509162726 19 210 0.0 0.0 0.00 0.00 0.00 60 1010.7
20260509161723 20 166 3.2 3.2 0.00 0.00 0.00 58 1010.6
20260509160720 20 166 3.2 4.8 0.00 0.00 0.00 58 1010.7
20260509155718 21 218 1.6 1.6 0.00 0.00 0.00 62 1010.7
20260509154717 20 257 1.6 1.6 0.00 0.00 0.00 58 1010.8
20260509153717 19 297 3.2 4.8 0.00 0.00 0.00 60 1010.8
20260509152715 20 265 3.2 3.2 0.00 0.00 0.00 58 1010.8
20260509151715 18 206 0.0 1.6 0.00 0.00 0.00 63 1011.0
20260509150710 19 176 1.6 4.8 0.00 0.00 0.00 57 1011.1
20260509145710 18 191 1.6 3.2 0.00 0.00 0.00 61 1011.1
20260509144708 18 157 3.2 3.2 0.00 0.00 0.00 63 1010.9
20260509143702 19 138 1.6 1.6 0.00 0.00 0.00 59 1011.1
20260509142700 18 218 0.0 0.0 0.00 0.00 0.00 62 1011.5
20260509141658 17 160 4.8 6.4 0.00 0.00 0.00 62 1011.3
20260509140658 16 211 0.0 1.6 0.00 0.00 0.00 69 1011.5
20260509135653 16 185 0.0 0.0 0.00 0.00 0.00 67 1011.4
20260509134653 15 227 1.6 1.6 0.00 0.00 0.00 67 1011.3
20260509133648 15 218 0.0 0.0 0.00 0.00 0.00 65 1011.5
20260509132649 14 221 0.0 0.0 0.00 0.00 0.00 68 1011.4
20260509131648 14 229 0.0 0.0 0.00 0.00 0.00 68 1011.8
20260509130647 14 227 1.6 1.6 0.00 0.00 0.00 66 1011.7
20260509125646 14 229 1.6 1.6 0.00 0.00 0.00 67 1011.5
20260509124645 13 220 0.0 0.0 0.00 0.00 0.00 67 1011.4
20260509123640 13 217 0.0 1.6 0.00 0.00 0.00 68 1011.8
20260509122638 13 219 1.6 1.6 0.00 0.00 0.00 68 1011.5
20260509121637 13 151 1.6 3.2 0.00 0.00 0.00 69 1011.4
20260509120633 13 215 1.6 4.8 0.00 0.00 0.00 67 1011.4
20260509115628 13 196 0.0 0.0 0.00 0.00 0.00 68 1011.3
20260509114624 13 153 1.6 3.2 0.00 0.00 0.00 67 1011.4
20260509113621 13 260 1.6 4.8 0.00 0.00 0.00 67 1011.3
20260509112620 12 207 0.0 0.0 0.00 0.00 0.00 68 1011.2
20260509111620 12 171 3.2 3.2 0.00 0.00 0.00 68 1011.1
20260509110620 12 143 3.2 3.2 0.00 0.00 0.00 68 1010.8
20260509105615 12 194 1.6 1.6 0.00 0.00 0.00 69 1010.7
20260509104615 12 192 1.6 1.6 0.00 0.00 0.00 69 1010.8
20260509103610 12 189 0.0 1.6 0.00 0.00 0.00 68 1010.7
20260509102610 12 186 0.0 1.6 0.00 0.00 0.00 66 1010.7
20260509101609 12 204 0.0 1.6 0.00 0.00 0.00 65 1010.7
20260509100609 12 207 0.0 1.6 0.00 0.00 0.00 65 1010.6
20260509095607 12 219 0.0 0.0 0.00 0.00 0.00 66 1010.9
20260509094607 12 228 0.0 1.6 0.00 0.00 0.00 66 1010.7
20260509093603 12 233 0.0 0.0 0.00 0.00 0.00 66 1010.9
20260509092604 12 254 1.6 3.2 0.00 0.00 0.00 66 1011.0
20260509091600 12 198 0.0 0.0 0.00 0.00 0.00 66 1010.9
20260509090559 12 205 1.6 1.6 0.00 0.00 0.00 65 1011.1
20260509085600 12 224 0.0 0.0 0.00 0.00 0.00 65 1011.3
20260509084559 12 214 0.0 0.0 0.00 0.00 0.00 64 1011.1
20260509083559 12 225 0.0 0.0 0.00 0.00 0.00 65 1011.3
20260509082558 13 210 0.0 0.0 0.00 0.00 0.00 63 1011.5
20260509081558 13 207 0.0 0.0 0.00 0.00 0.00 62 1011.5
20260509080553 13 141 3.2 4.8 0.00 0.00 0.00 62 1011.5
20260509075548 13 176 3.2 3.2 0.00 0.00 0.00 62 1011.5
20260509074548 13 120 3.2 4.8 0.00 0.00 0.00 60 1011.6
20260509073548 13 165 1.6 1.6 0.00 0.00 0.00 61 1011.5
20260509072546 13 168 0.0 1.6 0.00 0.00 0.00 60 1011.4
20260509071546 13 192 3.2 3.2 0.00 0.00 0.00 60 1011.5
20260509070547 13 188 3.2 3.2 0.00 0.00 0.00 59 1011.6
20260509065544 13 173 3.2 4.8 0.00 0.00 0.00 59 1011.6
20260509064544 13 169 1.6 3.2 0.00 0.00 0.00 60 1011.6
20260509063543 13 195 3.2 3.2 0.00 0.00 0.00 60 1011.3
20260509062538 13 266 0.0 1.6 0.00 0.00 0.00 61 1011.3
20260509061532 13 175 1.6 3.2 0.00 0.00 0.00 61 1011.7